THOR ABLESTAR DEB, 128

Orbit data source: Space-Track

THOR ABLESTAR DEB, 128 is space debris in LEO originally from a launch on Thu, 29 Jun 1961 UTC launched from the Air Force Eastern Test Range (AFETR). Debris objects in space refer to the collection of defunct objects orbiting the Earth. Examples of debris include non-operational satellites, rocket bodies, and fragments generated from explosions, collisions, or faulty payload assembly.

Loading next visibility...
Identifier
128, 1961-015N
Orbit
LEO
Country
Flag of USUS
Related business
Manufacturer
Unknown
Mission
Spacecraft
Bus & Motor
Unknown
Mass
Unknown
Launch date (UTC)
1961-06-29 (65 years ago)
Launch vehicle
Unknown
Launch site
Air Force Eastern Test Range (AFETR)
Object type
Payload
Rocket body
Debris
Shape & HBR
Unknown shape, 0.3 m
Radar Cross Section
Medium (>0.1 m² and <1 m²)

Expand to show TLE details & history
Last TLE update: 11 hours ago

TLE from 11 hours ago
0 THOR ABLESTAR DEB
1   128U 61015N   26037.27688843  .00000121  00000-0  12711-3 0  9997
2   128  66.6751 147.3272 0088444  45.2401 315.5835 14.01996174296722
Epoch: 2026-02-06T06:38Z
TLE epoch observation values (Epoch: 2026-02-06T06:38:43.160Z)
Latitude
0.00004°
Longitude
-88.76969°
Altitude
843.349 km
Speed
7.455 km/s
True Right ascension
09h 49m 18s
True Declination
0° 00' 00"
Sunlit
Object was in full shadow at epoch
Visualization orbit readout
Latitude
Unknown
Longitude
Unknown
Altitude
Unknown
Speed
Unknown
Apparent Right ascension
Unknown
Apparent Declination
Unknown
Sunlit
N/A
Visualization observer readout
Local Sidereal Time
19:44:30
Azimuth
Unknown
Elevation
Unknown
Doppler factor
Unknown
Orbital elements
Apogee altitude
949.531 km
Perigee altitude
821.049 km
Semi-major axis
7,263.427 km
Eccentricity
0.00884
Inclination
66.6751°
RAAN
147.3272°
Arg. of periapsis
45.2401°
True anomaly
314.86856°
Mean anomaly
315.5835°
Eccentric anomaly
315.2266°
Mean motion
3.50615 °/min
Orbital period
102.68 mins
BSTAR
0.00012711
Loading maneuver chart data...
Computing Atmospheric mass density...

Documentation

Showing up to 5 results
|